Location: Rounton
(54.4000°N, 1.3500°W)
Time: 01:47:56
(UTC+00:00)

Transit 4A - Pass Details

Date: 05 December 2021
Orbit: 864 x 981 km, 66.8° (Epoch: 19 January)

Event Time Altitude Azimuth Distance (km) Brightness Sun altitude
Exits shadow 03:31:26 11° 145° (SE) 2,666 10.4 -38.8°
Drops below altitude 10° 03:31:34 10° 145° (SE) 2,716 10.5 -38.8°
Sets 03:34:08 0° 144° (SE) 3,667 11.2 -38.5°
